Regional Weather Roundup
Issued by NWS Little Rock, AR

Home | Current Version | Previous Version | Graphics & Text | Print | Product List | Glossary On
Versions: 1 2 3 4 5 6 7 8 9 10 11 12 13 14 15 16 17 18 19 20 21 22 23 24 25 26 27 28 29 30 31 32 33 34 35 36 37 38 39 40 41 42 43 44 45 46 47 48 49 50
000
ASUS44 KLZK 180905
RWRLZK

WEATHER ROUNDUP FOR ARKANSAS
NATIONAL WEATHER SERVICE LITTLE ROCK AR
400 AM CDT SAT APR 18 2015

NOTE: "FAIR" INDICATES FEW OR NO CLOUDS BELOW 12,000 FEET WITH NO
SIGNIFICANT WEATHER AND/OR OBSTRUCTIONS TO VISIBILITY.

ARZ001-003-010-029-181000-
NORTHWEST ARKANSAS

CITY           SKY/WX    TMP DP  RH WIND       PRES   REMARKS
FAYETTEVILLE   CLOUDY    59  59 100 CALM      29.95F
FORT SMITH     CLOUDY    65  61  87 NE8       29.93F
HARRISON       FOG       58  58 100 SE7       29.99F VSB 1/2
BENTONVILLE    CLOUDY    63  57  82 SE7       29.96F
ROGERS         CLOUDY    61  60  97 E8        29.96F
SILOAM SPGS    CLOUDY    63  55  77 CALM      29.96F
HIGHFILL       CLOUDY    62  59  90 E6        29.94F
$$

ARZ004-005-016-181000-
NORTH CENTRAL ARKANSAS

CITY           SKY/WX    TMP DP  RH WIND       PRES   REMARKS
BATESVILLE     PTCLDY    59  57  94 CALM      29.99S
FLIPPIN        CLOUDY    59 N/A N/A CALM      29.98S
MTN HOME       CLOUDY    61  61 100 CALM      29.99S
$$

ARZ040-041-181000-
WEST CENTRAL ARKANSAS

CITY           SKY/WX    TMP DP  RH WIND       PRES   REMARKS
MENA           CLOUDY    64  63  94 CALM      29.96S
MOUNT IDA      CLOUDY    63  61  93 CALM      29.92F
$$

ARZ009-017-025-026-028-181000-
NORTHEAST ARKANSAS

CITY           SKY/WX    TMP DP  RH WIND       PRES   REMARKS
CORNING          N/A     59  59 100 E5        30.00S FOG
JONESBORO      FOG       56  56 100 CALM      30.00R VSB 3/4
NEWPORT        FOG       61  61 100 CALM      30.00S VSB 1/2
WALNUT RIDGE     N/A     61  57  88 CALM      29.99F VSB 1/2
BLYTHEVILLE    FOG       57  57 100 NW3       30.01R VSB 1
$$

ARZ022-023-033-042-044-181000-
CENTRAL ARKANSAS

CITY           SKY/WX    TMP DP  RH WIND       PRES   REMARKS
LITTLE ROCK    CLOUDY    63  60  90 NE5       29.96F
N LITTLE ROCK    N/A     64  63  99 E5        29.96F
JACKSONVILLE   CLOUDY    60  60  99 NE1       29.96F
SEARCY         CLOUDY    59  59 100 N5        29.99F
HOT SPRINGS    CLOUDY    64  60  87 E5        29.95F
RUSSELLVILLE   CLOUDY    62  61  96 CALM      29.96F
CLINTON        FOG       55  55 100 CALM      30.01S VSB<1/4
$$

ARZ036-181000-
EAST ARKANSAS

CITY           SKY/WX    TMP DP  RH WIND       PRES   REMARKS
WEST MEMPHIS   MOCLDY    59  59 100 CALM      29.98S FOG
$$

ARZ050-053-066-070-073-181000-
SOUTHWEST ARKANSAS

CITY           SKY/WX    TMP DP  RH WIND       PRES   REMARKS
ARKADELPHIA    FAIR      65  65 100 NE6       29.94F
CAMDEN         CLOUDY    63  59  88 CALM      29.93F
TEXARKANA      CLOUDY    66  63  90 SE5       29.92F
EL DORADO      CLOUDY    64  61  90 NE5       29.93F
DE QUEEN       CLOUDY    67  62  84 E5        29.91F
$$

ARZ056-057-069-181000-
SOUTHEAST ARKANSAS

CITY           SKY/WX    TMP DP  RH WIND       PRES   REMARKS
PINE BLUFF     CLOUDY    64  62  93 E3        29.96F
STUTTGART      CLOUDY    64  61  88 E3        29.96F
MONTICELLO     CLOUDY    64  63  96 E6        29.94F

$$




USA.gov is the U.S. government's official web portal to all federal, state and local government web resources and services.